1511924400.36,16274,6.88,72372.3,-8.51,-9.49,-9.49,0,*5A
1511924401.64,16275,6.88,72380.3,-8.51,-9.41,-9.49,0,*53
1511924402.91,16276,6.88,72374.5,-8.51,-9.53,-9.61,0,*59
1511924404.19,16277,6.88,72380.3,-8.51,-9.49,-9.49,0,*59
1511924405.43,16278,6.88,72376.0,-8.55,-9.45,-9.45,0,*52
1511924406.68,16279,6.88,72378.5,-8.55,-9.41,-9.41,0,*53
1511924407.93,16280,6.88,72386.0,-8.55,-9.45,-9.45,0,*55
1511924409.17,16281,6.88,72382.0,-8.55,-9.57,-9.53,0,*50
1511924410.45,16282,6.88,72378.5,-8.51,-9.49,-9.53,0,*58
1511924411.69,16283,6.88,72382.3,-8.55,-9.49,-9.57,0,*59
1511924412.96,16284,6.88,72380.5,-8.51,-9.53,-9.49,0,*5E
1511924414.23,16285,6.88,72388.0,-8.51,-9.53,-9.61,0,*55
1511924415.5,16286,6.88,72388.8,-8.51,-9.53,-9.53,0,*57
1511924416.75,16287,6.88,72376.5,-8.51,-9.61,-9.67,0,*50
1511924418.0,16288,6.88,72376.3,-8.51,-9.61,-9.67,0,*5F
1511924419.22,16289,6.88,72378.3,-8.51,-9.67,-9.75,0,*5B
1511924420.42,16290,6.94,72380.8,-8.55,-9.67,-9.75,0,*57
1511924421.61,16291,6.88,72378.3,-8.55,-9.67,-9.71,0,*52
1511924422.83,16292,6.88,72380.3,-8.59,-9.53,-9.67,0,*5D
1511924424.08,16293,6.88,72376.3,-8.51,-9.61,-9.67,0,*55
1511924425.34,16294,6.88,72386.5,-8.51,-9.53,-9.61,0,*55
1511924426.56,16295,6.88,72386.0,-8.55,-9.67,-9.57,0,*52
1511924427.84,16296,6.88,72382.8,-8.51,-9.53,-9.53,0,*56
1511924429.08,16297,6.88,72386.5,-8.55,-9.53,-9.53,0,*53
1511924430.28,16298,6.88,72382.3,-8.55,-9.67,-9.67,0,*5C
1511924431.52,16299,6.88,72382.0,-8.55,-9.53,-9.57,0,*59
1511924432.76,16300,6.88,72368.0,-8.55,-9.53,-9.53,0,*5C
1511924434.03,16301,6.88,72374.3,-8.51,-9.61,-9.61,0,*59
1511924435.27,16302,6.88,72362.0,-8.55,-9.57,-9.57,0,*5E
1511924436.49,16303,6.88,72364.8,-8.55,-9.67,-9.53,0,*58
1511924437.7,16304,6.88,72362.8,-8.55,-9.57,-9.67,0,*5B
1511924438.92,16305,6.88,72366.3,-8.55,-9.57,-9.67,0,*5A
1511924440.11,16306,6.88,72356.8,-8.55,-9.67,-9.67,0,*5A
1511924441.31,16307,6.88,72362.3,-8.55,-9.67,-9.79,0,*54
1511924442.52,16308,6.88,72366.8,-8.55,-9.57,-9.67,0,*57
1511924443.73,16309,6.88,72368.0,-8.55,-9.71,-9.67,0,*52
1511924445.0,16310,6.88,72376.0,-8.51,-9.53,-9.53,0,*59
1511924446.24,16311,6.88,72382.3,-8.55,-9.45,-9.57,0,*5F
1511924447.46,16312,6.88,72376.3,-8.55,-9.53,-9.67,0,*58
1511924448.7,16313,6.88,72382.0,-8.55,-9.57,-9.57,0,*5E
1511924449.89,16314,6.88,72380.3,-8.55,-9.67,-9.67,0,*59
1511924451.11,16315,6.88,72374.0,-8.55,-9.57,-9.67,0,*5B
1511924452.32,16316,6.88,72372.5,-8.55,-9.57,-9.67,0,*58
1511924453.54,16317,6.88,72376.0,-8.55,-9.57,-9.67,0,*59
1511924454.75,16318,6.88,72374.8,-8.55,-9.67,-9.57,0,*56
1511924456.03,16319,6.88,72370.5,-8.51,-9.53,-9.53,0,*50
1511924457.3,16320,6.88,72376.8,-8.51,-9.49,-9.49,0,*5A
1511924458.54,16321,6.88,72374.8,-8.55,-9.57,-9.57,0,*5F
1511924459.75,16322,6.88,72370.8,-8.55,-9.57,-9.67,0,*5F
1511924461.02,16323,6.88,72372.0,-8.51,-9.53,-9.61,0,*58
1511924462.23,16324,6.88,72372.5,-8.55,-9.57,-9.71,0,*5E
1511924463.51,16325,6.88,72368.5,-8.51,-9.49,-9.49,0,*5F
1511924464.75,16326,6.88,72372.3,-8.55,-9.53,-9.57,0,*5C
1511924465.94,16327,6.88,72374.5,-8.55,-9.67,-9.71,0,*5E
1511924467.14,16328,6.88,72376.8,-8.55,-9.67,-9.67,0,*56
1511924468.35,16329,6.88,72372.0,-8.55,-9.57,-9.67,0,*54
1511924469.59,16330,6.88,72374.0,-8.55,-9.57,-9.57,0,*5F
1511924470.83,16331,6.88,72372.5,-8.55,-9.53,-9.57,0,*5A
1511924472.1,16332,6.88,72368.8,-8.51,-9.53,-9.53,0,*59
1511924473.32,16333,6.88,72374.5,-8.55,-9.57,-9.67,0,*5F
1511924474.59,16334,6.88,72374.3,-8.51,-9.53,-9.61,0,*5E
1511924475.83,16335,6.88,72374.0,-8.55,-9.53,-9.61,0,*5B
1511924477.07,16336,6.88,72376.8,-8.55,-9.53,-9.57,0,*5D
1511924478.34,16337,6.88,72378.3,-8.51,-9.49,-9.53,0,*57
1511924479.56,16338,6.88,72378.8,-8.55,-9.53,-9.67,0,*50
1511924480.76,16339,6.88,72378.0,-8.55,-9.67,-9.67,0,*56
1511924481.97,16340,6.88,72378.5,-8.55,-9.57,-9.67,0,*5B
1511924483.21,16341,6.88,72382.3,-8.55,-9.57,-9.57,0,*59
1511924484.48,16342,6.88,72382.5,-8.51,-9.53,-9.49,0,*55
1511924485.75,16343,6.88,72384.0,-8.51,-9.49,-9.49,0,*5F
1511924487.03,16344,6.88,72388.8,-8.51,-9.49,-9.49,0,*58
1511924488.22,16345,6.88,72374.5,-8.55,-9.67,-9.67,0,*5D
1511924489.49,16346,6.88,72362.0,-8.51,-9.53,-9.61,0,*5B
1511924490.69,16347,6.88,72372.8,-8.55,-9.67,-9.67,0,*5F
1511924491.9,16348,6.88,72374.3,-8.55,-9.67,-9.57,0,*53
1511924493.1,16349,6.88,72374.0,-8.55,-9.67,-9.67,0,*51
1511924494.37,16350,6.88,72368.8,-8.51,-9.61,-9.61,0,*5D
1511924495.61,16351,6.88,72370.5,-8.55,-9.57,-9.53,0,*5C
1511924496.86,16352,6.88,72372.8,-8.55,-9.45,-9.45,0,*5B
1511924498.14,16353,6.88,72382.8,-8.51,-9.41,-9.49,0,*56
1511924499.41,16354,6.88,72380.0,-8.51,-9.41,-9.41,0,*59
1511924500.69,16355,6.88,72380.3,-8.51,-9.41,-9.49,0,*50
1511924501.96,16356,6.88,72380.5,-8.51,-9.49,-9.49,0,*5B
1511924503.21,16357,6.88,72382.0,-8.55,-9.53,-9.49,0,*55
1511924504.42,16358,6.88,72382.8,-8.55,-9.57,-9.67,0,*52
1511924505.69,16359,6.88,72386.3,-8.51,-9.61,-9.61,0,*54
1511924506.91,16360,6.88,72380.8,-8.55,-9.67,-9.57,0,*59
1511924508.18,16361,6.88,72386.3,-8.51,-9.61,-9.53,0,*5E
1511924509.45,16362,6.88,72384.3,-8.51,-9.53,-9.53,0,*5C
1511924510.73,16363,6.88,72376.8,-8.51,-9.53,-9.53,0,*5D
1511924512.0,16364,6.88,72380.0,-8.51,-9.53,-9.61,0,*5B
1511924513.27,16365,6.88,72382.5,-8.51,-9.49,-9.49,0,*5B
1511924514.52,16366,6.88,72380.8,-8.55,-9.53,-9.53,0,*5C
1511924515.77,16367,6.88,72370.8,-8.55,-9.41,-9.53,0,*5E
1511924517.05,16368,6.88,72374.8,-8.51,-9.49,-9.53,0,*5D
1511924518.26,16369,6.88,72370.8,-8.55,-9.57,-9.67,0,*50
1511924519.5,16370,6.88,72364.5,-8.55,-9.53,-9.57,0,*5F
1511924520.78,16371,6.88,72360.0,-8.51,-9.49,-9.53,0,*55
1511924522.05,16372,6.88,72364.5,-8.51,-9.49,-9.61,0,*57
1511924523.33,16373,6.88,72360.3,-8.51,-9.41,-9.49,0,*54
1511924524.6,16374,6.88,72360.8,-8.51,-9.41,-9.41,0,*5B
1511924525.88,16375,6.88,72364.0,-8.51,-9.49,-9.49,0,*5A
1511924527.15,16376,6.88,72362.3,-8.51,-9.49,-9.49,0,*59
1511924528.42,16377,6.88,72362.5,-8.51,-9.61,-9.53,0,*59
1511924529.69,16378,6.88,72364.0,-8.51,-9.61,-9.53,0,*56
1511924530.94,16379,6.88,72366.5,-8.55,-9.53,-9.45,0,*55
1511924532.21,16380,6.88,72374.3,-8.51,-9.49,-9.49,0,*50
1511924533.48,16381,6.88,72378.0,-8.51,-9.49,-9.41,0,*59
1511924534.76,16382,6.88,72376.5,-8.51,-9.41,-9.49,0,*5A
1511924536.03,16383,6.88,72372.3,-8.51,-9.53,-9.61,0,*52
1511924537.28,16384,6.88,72374.5,-8.55,-9.45,-9.53,0,*57
1511924538.56,16385,6.88,72378.8,-8.51,-9.37,-9.41,0,*54
1511924539.84,16386,6.88,72382.0,-8.51,-9.37,-9.41,0,*57
1511924541.11,16387,6.88,72380.8,-8.51,-9.53,-9.49,0,*5C
1511924542.39,16388,6.88,72374.3,-8.51,-9.41,-9.49,0,*50
1511924543.63,16389,6.88,72376.3,-8.55,-9.53,-9.53,0,*5D
1511924544.91,16390,6.88,72376.5,-8.51,-9.41,-9.41,0,*51
1511924546.19,16391,6.88,72376.8,-8.51,-9.41,-9.49,0,*58
1511924547.46,16392,6.88,72378.3,-8.51,-9.49,-9.49,0,*53
1511924548.74,16393,6.88,72380.3,-8.51,-9.41,-9.41,0,*52
1511924550.02,16394,6.88,72382.0,-8.51,-9.37,-9.41,0,*54
1511924551.29,16395,6.88,72384.3,-8.51,-9.49,-9.37,0,*5D
1511924552.56,16396,6.88,72384.0,-8.51,-9.49,-9.49,0,*57
1511924553.84,16397,6.88,72382.5,-8.51,-9.49,-9.41,0,*5E
1511924555.11,16398,6.88,72378.8,-8.51,-9.41,-9.41,0,*59
1511924556.37,16399,6.88,72378.3,-8.49,-9.37,-9.37,0,*51
1511924557.62,16400,6.88,72380.5,-8.49,-9.37,-9.37,0,*56
1511924558.88,16401,6.88,72378.5,-8.49,-9.37,-9.37,0,*57
1511924560.16,16402,6.88,72374.0,-8.51,-9.41,-9.49,0,*55
1511924561.43,16403,6.88,72368.8,-8.51,-9.41,-9.41,0,*5C
1511924562.69,16404,6.88,72368.5,-8.49,-9.37,-9.45,0,*57
1511924563.94,16405,6.88,72368.8,-8.49,-9.37,-9.45,0,*56
1511924565.2,16406,6.88,72364.3,-8.49,-9.37,-9.37,0,*50
1511924566.45,16407,6.88,72364.0,-8.49,-9.37,-9.37,0,*51
1511924567.71,16408,6.88,72370.5,-8.49,-9.37,-9.37,0,*5E
1511924568.93,16409,6.88,72366.8,-8.49,-9.31,-9.37,0,*59
1511924570.22,16410,6.88,72368.5,-8.47,-9.37,-9.37,0,*59
1511924571.47,16411,6.88,72370.3,-8.47,-9.37,-9.27,0,*59
1511924572.66,16412,6.88,72368.8,-8.49,-9.31,-9.31,0,*55
1511924573.86,16413,6.88,72370.3,-8.49,-9.31,-9.31,0,*54
1511924575.11,16414,6.88,72378.5,-8.47,-9.31,-9.37,0,*5B
1511924576.36,16415,6.88,72378.8,-8.47,-9.31,-9.37,0,*5A
1511924577.59,16416,6.88,72378.3,-8.49,-9.31,-9.45,0,*52
1511924578.82,16417,6.88,72374.8,-8.49,-9.27,-9.37,0,*51
1511924580.07,16418,6.88,72380.0,-8.49,-9.37,-9.37,0,*5F
1511924581.33,16419,6.88,72378.5,-8.49,-9.37,-9.37,0,*5E
1511924582.61,16420,6.88,72384.8,-8.47,-9.37,-9.37,0,*5A
1511924583.86,16421,6.88,72386.0,-8.49,-9.37,-9.37,0,*55
1511924585.12,16422,6.88,72384.5,-8.49,-9.37,-9.45,0,*53
1511924586.37,16423,6.88,72388.5,-8.49,-9.37,-9.45,0,*52
1511924587.65,16424,6.88,72392.5,-8.47,-9.37,-9.37,0,*5E
1511924588.91,16425,6.88,72388.8,-8.49,-9.37,-9.37,0,*51
1511924590.16,16426,6.88,72382.5,-8.49,-9.37,-9.37,0,*52
1511924591.42,16427,6.88,72386.8,-8.49,-9.37,-9.37,0,*53
1511924592.64,16428,6.88,72378.5,-8.49,-9.31,-9.37,0,*5A
1511924593.9,16429,6.88,72384.3,-8.49,-9.37,-9.37,0,*5D
1511924595.15,16430,6.88,72382.0,-8.49,-9.37,-9.37,0,*55
1511924596.44,16431,6.88,72382.3,-8.47,-9.37,-9.37,0,*5A
1511924597.69,16432,6.88,72382.5,-8.49,-9.37,-9.45,0,*52
1511924598.94,16433,6.88,72376.0,-8.49,-9.37,-9.37,0,*56
1511924600.23,16434,6.88,72374.8,-8.47,-9.37,-9.37,0,*5F
1511924601.48,16435,6.88,72366.5,-8.49,-9.37,-9.45,0,*55
1511924602.76,16436,6.88,72364.5,-8.47,-9.37,-9.37,0,*5D
1511924604.01,16437,6.88,72360.8,-8.49,-9.45,-9.37,0,*57
1511924605.24,16438,6.88,72364.0,-8.49,-9.31,-9.45,0,*5E
1511924606.47,16439,6.88,72366.5,-8.49,-9.31,-9.37,0,*5A
1511924607.72,16440,6.88,72360.5,-8.47,-9.31,-9.37,0,*5A
1511924608.95,16441,6.88,72358.0,-8.49,-9.31,-9.37,0,*55
1511924610.2,16442,6.88,72358.0,-8.47,-9.31,-9.37,0,*58
1511924611.46,16443,6.88,72366.8,-8.47,-9.31,-9.37,0,*59
1511924612.71,16444,6.88,72364.3,-8.49,-9.37,-9.45,0,*53
1511924613.96,16445,6.88,72364.3,-8.49,-9.45,-9.45,0,*57
1511924615.21,16446,6.88,72370.5,-8.49,-9.45,-9.45,0,*54
1511924616.49,16447,6.88,72368.5,-8.47,-9.37,-9.45,0,*5E
1511924617.75,16448,6.88,72378.3,-8.49,-9.37,-9.45,0,*5F
1511924619.0,16449,6.88,72380.5,-8.49,-9.37,-9.37,0,*5B
1511924620.25,16450,6.88,72376.3,-8.49,-9.45,-9.45,0,*53
1511924621.53,16451,6.88,72388.3,-8.47,-9.37,-9.45,0,*59
1511924622.79,16452,6.88,72388.5,-8.49,-9.37,-9.37,0,*51
1511924624.04,16453,6.88,72386.5,-8.49,-9.37,-9.37,0,*50
1511924625.32,16454,6.88,72386.5,-8.47,-9.37,-9.37,0,*59
1511924626.61,16455,6.88,72376.8,-8.47,-9.37,-9.37,0,*58
1511924627.86,16456,6.88,72378.5,-8.49,-9.45,-9.45,0,*55
1511924629.13,16457,6.88,72380.5,-8.47,-9.45,-9.37,0,*5F
1511924630.41,16458,6.88,72382.0,-8.47,-9.45,-9.37,0,*50
1511924631.69,16459,6.88,72384.3,-8.47,-9.45,-9.37,0,*51
1511924632.97,16460,6.88,72380.8,-8.47,-9.45,-9.37,0,*5B
1511924634.25,16461,6.88,72372.0,-8.47,-9.45,-9.37,0,*5A
1511924635.5,16462,6.88,72370.8,-8.49,-9.45,-9.37,0,*57
1511924636.78,16463,6.88,72368.3,-8.47,-9.37,-9.37,0,*5D
1511924638.06,16464,6.88,72370.8,-8.47,-9.45,-9.45,0,*5A
1511924639.3,16465,6.88,72374.3,-8.49,-9.49,-9.49,0,*55
1511924640.55,16466,6.88,72370.8,-8.49,-9.49,-9.49,0,*56
1511924641.83,16467,6.88,72368.8,-8.47,-9.45,-9.45,0,*59
1511924643.11,16468,6.88,72372.5,-8.47,-9.37,-9.45,0,*53
1511924644.38,16469,6.88,72368.8,-8.47,-9.49,-9.57,0,*58
1511924645.64,16470,6.88,72366.5,-8.47,-9.57,-9.49,0,*50
1511924646.92,16471,6.88,72358.5,-8.47,-9.49,-9.49,0,*5E
1511924648.19,16472,6.88,72348.5,-8.47,-9.45,-9.45,0,*5D
1511924649.48,16473,6.88,72354.3,-8.47,-9.37,-9.37,0,*5C
1511924650.76,16474,6.88,72350.0,-8.47,-9.37,-9.45,0,*5E
1511924652.0,16475,6.88,72348.3,-8.49,-9.49,-9.49,0,*54
1511924653.25,16476,6.88,72346.5,-8.49,-9.45,-9.49,0,*5B
1511924654.52,16477,6.88,72346.8,-8.47,-9.57,-9.49,0,*57
1511924655.78,16478,6.88,72350.5,-8.47,-9.57,-9.57,0,*57
1511924657.05,16479,6.88,72352.3,-8.47,-9.49,-9.57,0,*59
1511924658.32,16480,6.88,72348.8,-8.47,-9.49,-9.57,0,*5F
1511924659.59,16481,6.88,72350.5,-8.47,-9.57,-9.49,0,*5E
1511924660.84,16482,6.88,72350.8,-8.49,-9.49,-9.45,0,*50
1511924662.09,16483,6.88,72356.0,-8.49,-9.45,-9.49,0,*51
1511924663.34,16484,6.88,72358.8,-8.49,-9.45,-9.49,0,*56
1511924664.59,16485,6.88,72360.0,-8.49,-9.45,-9.37,0,*5E
1511924665.85,16486,6.88,72366.3,-8.47,-9.57,-9.57,0,*56
1511924667.13,16487,6.88,72364.8,-8.47,-9.45,-9.45,0,*57
1511924668.41,16488,6.88,72368.0,-8.47,-9.37,-9.37,0,*58
1511924669.69,16489,6.88,72370.0,-8.47,-9.37,-9.45,0,*5C
1511924670.95,16490,6.88,72372.5,-8.49,-9.37,-9.37,0,*5F
1511924672.22,16491,6.88,72376.0,-8.47,-9.45,-9.37,0,*55
1511924673.5,16492,6.88,72374.0,-8.47,-9.45,-9.45,0,*53
1511924674.78,16493,6.88,72374.3,-8.47,-9.45,-9.45,0,*52
1511924676.06,16494,6.88,72364.0,-8.47,-9.37,-9.45,0,*50
1511924677.33,16495,6.88,72356.8,-8.47,-9.49,-9.49,0,*54
1511924678.6,16496,6.88,72354.8,-8.47,-9.57,-9.57,0,*57
1511924679.87,16497,6.88,72358.5,-8.47,-9.49,-9.57,0,*59
1511924681.14,16498,6.88,72360.8,-8.47,-9.49,-9.57,0,*56
1511924682.4,16499,6.88,72356.5,-8.47,-9.57,-9.49,0,*57
1511924683.68,16500,6.88,72358.5,-8.47,-9.49,-9.45,0,*55
1511924684.96,16501,6.88,72360.0,-8.47,-9.45,-9.45,0,*58
1511924686.23,16502,6.88,72366.0,-8.47,-9.45,-9.37,0,*5E
1511924687.52,16503,6.88,72366.8,-8.47,-9.37,-9.45,0,*5F
1511924688.8,16504,6.88,72364.8,-8.47,-9.37,-9.37,0,*5D
1511924690.08,16505,6.88,72370.3,-8.47,-9.37,-9.37,0,*5C
1511924691.33,16506,6.88,72360.0,-8.49,-9.37,-9.37,0,*51
1511924692.59,16507,6.88,72362.5,-8.45,-9.41,-9.41,0,*5C
1511924693.79,16508,6.88,72360.0,-8.45,-9.31,-9.31,0,*53
1511924695.07,16509,6.88,72366.5,-8.47,-9.45,-9.37,0,*55
1511924696.3,16510,6.88,72362.8,-8.45,-9.31,-9.41,0,*5D
1511924697.55,16511,6.88,72360.5,-8.45,-9.45,-9.45,0,*5B
1511924698.78,16512,6.88,72358.8,-8.45,-9.41,-9.31,0,*5F
1511924700.06,16513,6.88,72356.8,-8.47,-9.37,-9.37,0,*5B
1511924701.26,16514,6.88,72360.3,-8.45,-9.27,-9.31,0,*59
1511924702.49,16515,6.88,72364.0,-8.45,-9.41,-9.31,0,*58
1511924703.72,16516,6.88,72362.8,-8.45,-9.41,-9.31,0,*5B
1511924704.95,16517,6.88,72358.0,-8.45,-9.31,-9.45,0,*5E
1511924706.2,16518,6.88,72364.8,-8.45,-9.45,-9.41,0,*56
1511924707.45,16519,6.88,72366.3,-8.49,-9.45,-9.45,0,*5F
1511924708.73,16520,6.88,72376.8,-8.47,-9.45,-9.45,0,*5B
1511924710.01,16521,6.88,72370.8,-8.47,-9.37,-9.37,0,*5A
1511924711.29,16522,6.88,72366.5,-8.47,-9.37,-9.49,0,*50
1511924712.55,16523,6.88,72372.0,-8.45,-9.41,-9.45,0,*5E
1511924713.78,16524,6.88,72360.0,-8.45,-9.41,-9.31,0,*5A
1511924715.03,16525,6.88,72360.5,-8.45,-9.45,-9.41,0,*58
1511924716.3,16526,6.88,72358.5,-8.47,-9.57,-9.57,0,*5D
1511924717.55,16527,6.88,72358.0,-8.45,-9.53,-9.53,0,*5E
1511924718.8,16528,6.88,72354.3,-8.45,-9.53,-9.57,0,*55
1511924720.04,16529,6.88,72354.5,-8.45,-9.53,-9.57,0,*54
1511924721.29,16530,6.88,72358.5,-8.45,-9.57,-9.57,0,*58
1511924722.54,16531,6.88,72356.5,-8.45,-9.45,-9.57,0,*5A
1511924723.79,16532,6.88,72358.0,-8.45,-9.53,-9.53,0,*5A
1511924725.05,16533,6.88,72360.5,-8.45,-9.45,-9.41,0,*5F
1511924726.25,16534,6.88,72362.0,-8.45,-9.31,-9.31,0,*5C
1511924727.49,16535,6.88,72364.3,-8.43,-9.31,-9.41,0,*5C
1511924728.72,16536,6.88,72364.5,-8.45,-9.31,-9.41,0,*59
1511924730.0,16537,6.88,72362.8,-8.47,-9.37,-9.37,0,*5D
1511924731.26,16538,6.88,72360.3,-8.45,-9.41,-9.41,0,*50
1511924732.52,16539,6.88,72358.5,-8.45,-9.41,-9.45,0,*55
1511924733.8,16540,6.88,72358.0,-8.47,-9.37,-9.37,0,*5D
1511924735.08,16541,6.88,72360.3,-8.47,-9.45,-9.45,0,*5C
1511924736.31,16542,6.88,72362.5,-8.45,-9.31,-9.41,0,*5A
1511924737.54,16543,6.88,72364.0,-8.45,-9.41,-9.31,0,*5B
1511924738.74,16544,6.88,72362.8,-8.45,-9.31,-9.31,0,*5B
1511924740.01,16545,6.88,72360.5,-8.43,-9.41,-9.41,0,*5C
1511924741.27,16546,6.88,72360.3,-8.45,-9.41,-9.41,0,*59
1511924742.47,16547,6.88,72362.3,-8.45,-9.31,-9.31,0,*58
1511924743.73,16548,6.88,72362.3,-8.45,-9.41,-9.41,0,*57
1511924745.0,16549,6.88,72364.3,-8.43,-9.41,-9.41,0,*50
1511924746.23,16550,6.88,72368.0,-8.45,-9.31,-9.41,0,*59
1511924747.46,16551,6.88,72362.5,-8.45,-9.41,-9.31,0,*58
1511924748.71,16552,6.88,72366.0,-8.45,-9.41,-9.41,0,*5C
1511924749.99,16553,6.88,72360.5,-8.43,-9.45,-9.41,0,*5F
1511924751.24,16554,6.88,72358.0,-8.45,-9.41,-9.41,0,*5A
1511924752.5,16555,6.88,72362.5,-8.45,-9.41,-9.45,0,*5F
1511924753.73,16556,6.88,72368.0,-8.45,-9.41,-9.31,0,*5F
1511924755.0,16557,6.88,72360.0,-8.43,-9.41,-9.41,0,*5F
1511924756.26,16558,6.88,72360.5,-8.45,-9.41,-9.41,0,*56
1511924757.49,16559,6.88,72364.8,-8.45,-9.41,-9.31,0,*50
1511924758.75,16560,6.88,72364.8,-8.45,-9.41,-9.45,0,*59
1511924760.01,16561,6.88,72360.5,-8.45,-9.41,-9.45,0,*58
1511924761.27,16562,6.88,72362.0,-8.45,-9.41,-9.41,0,*5F
1511924762.52,16563,6.88,72366.5,-8.45,-9.45,-9.53,0,*59
1511924763.78,16564,6.88,72364.8,-8.45,-9.53,-9.53,0,*59
1511924765.03,16565,6.88,72362.8,-8.45,-9.45,-9.45,0,*58
1511924766.29,16566,6.88,72358.5,-8.45,-9.45,-9.45,0,*5B
1511924767.55,16567,6.88,72352.0,-8.45,-9.41,-9.45,0,*5E
1511924768.82,16568,6.88,72352.5,-8.43,-9.53,-9.53,0,*53
1511924770.08,16569,6.88,72356.3,-8.45,-9.41,-9.45,0,*50
1511924771.33,16570,6.88,72358.0,-8.45,-9.53,-9.53,0,*5C
1511924772.58,16571,6.88,72356.5,-8.43,-9.41,-9.31,0,*5C
1511924773.83,16572,6.88,72358.3,-8.45,-9.53,-9.53,0,*5E
1511924775.09,16573,6.88,72356.3,-8.45,-9.45,-9.53,0,*58
1511924776.34,16574,6.88,72362.0,-8.45,-9.53,-9.45,0,*5F
1511924777.6,16575,6.88,72356.0,-8.45,-9.45,-9.45,0,*59
1511924778.86,16576,6.88,72360.3,-8.45,-9.45,-9.53,0,*5D
1511924780.11,16577,6.88,72362.0,-8.45,-9.45,-9.45,0,*5B
1511924781.37,16578,6.88,72366.5,-8.45,-9.41,-9.45,0,*50
1511924782.63,16579,6.88,72366.0,-8.45,-9.53,-9.53,0,*55
1511924783.88,16580,6.88,72362.0,-8.45,-9.57,-9.53,0,*57
1511924785.15,16581,6.88,72366.3,-8.43,-9.53,-9.53,0,*54
1511924786.39,16582,6.88,72368.3,-8.43,-9.53,-9.67,0,*50
1511924787.64,16583,6.88,72364.0,-8.45,-9.53,-9.53,0,*50
1511924788.91,16584,6.88,72364.8,-8.43,-9.57,-9.53,0,*55
1511924790.16,16585,6.88,72370.8,-8.45,-9.53,-9.57,0,*52
1511924791.41,16586,6.88,72364.5,-8.45,-9.53,-9.57,0,*51
1511924792.68,16587,6.88,72364.8,-8.43,-9.53,-9.53,0,*52
1511924793.93,16588,6.88,72366.8,-8.45,-9.45,-9.53,0,*5C
1511924795.21,16589,6.88,72366.5,-8.43,-9.45,-9.53,0,*5B
1511924796.48,16590,6.88,72364.0,-8.43,-9.45,-9.45,0,*54
1511924797.74,16591,6.88,72364.3,-8.45,-9.53,-9.53,0,*53
1511924798.99,16592,6.88,72366.8,-8.45,-9.45,-9.53,0,*57
1511924800.26,16593,6.88,72368.3,-8.43,-9.53,-9.45,0,*50
1511924801.54,16594,6.88,72366.8,-8.43,-9.45,-9.53,0,*57
1511924802.79,16595,6.88,72364.3,-8.45,-9.53,-9.53,0,*57
1511924804.06,16596,6.88,72364.5,-8.43,-9.45,-9.57,0,*51
1511924805.31,16597,6.88,72366.5,-8.45,-9.53,-9.53,0,*55
1511924806.56,16598,6.88,72364.0,-8.45,-9.53,-9.57,0,*5E
1511924807.76,16599,6.88,72360.8,-8.45,-9.67,-9.67,0,*5B
1511924809.01,16600,6.88,72364.3,-8.45,-9.57,-9.57,0,*58
1511924810.27,16601,6.88,72358.0,-8.43,-9.57,-9.57,0,*5F
1511924811.51,16602,6.88,72356.8,-8.45,-9.57,-9.57,0,*5A
1511924812.78,16603,6.88,72358.3,-8.43,-9.57,-9.53,0,*59
1511924814.05,16604,6.88,72360.5,-8.43,-9.53,-9.53,0,*5A
1511924815.29,16605,6.88,72360.0,-8.45,-9.57,-9.45,0,*5E
1511924816.55,16606,6.88,72362.0,-8.45,-9.45,-9.45,0,*5E
1511924817.81,16607,6.88,72366.8,-8.45,-9.41,-9.45,0,*5B
1511924819.07,16608,6.88,72366.0,-8.45,-9.45,-9.45,0,*50
1511924820.33,16609,6.88,72364.3,-8.45,-9.41,-9.45,0,*55
1511924821.58,16610,6.88,72366.3,-8.45,-9.41,-9.41,0,*59
1511924822.84,16611,6.88,72368.3,-8.45,-9.45,-9.53,0,*5F
1511924824.09,16612,6.88,72364.0,-8.45,-9.57,-9.57,0,*5B
1511924825.33,16613,6.88,72366.0,-8.45,-9.53,-9.57,0,*5E
1511924826.59,16614,6.81,72362.5,-8.45,-9.45,-9.45,0,*5D
1511924827.84,16615,6.88,72372.3,-8.45,-9.53,-9.53,0,*5C
1511924829.08,16616,6.88,72378.0,-8.45,-9.31,-9.45,0,*5C
1511924830.31,16617,6.88,72374.0,-8.45,-9.31,-9.41,0,*59
1511924831.55,16618,6.88,72376.8,-8.43,-9.41,-9.31,0,*50
1511924832.75,16619,6.88,72376.0,-8.45,-9.31,-9.31,0,*50
1511924833.95,16620,6.88,72378.0,-8.45,-9.31,-9.31,0,*5A
1511924835.15,16621,6.88,72376.8,-8.45,-9.31,-9.31,0,*5B
1511924836.35,16622,6.88,72376.8,-8.45,-9.31,-9.31,0,*58
1511924837.55,16623,6.88,72374.3,-8.45,-9.31,-9.31,0,*59
1511924838.76,16624,6.88,72372.8,-8.43,-9.31,-9.31,0,*58
1511924840.01,16625,6.88,72374.3,-8.43,-9.31,-9.41,0,*5E
1511924841.23,16626,6.88,72374.0,-8.43,-9.31,-9.31,0,*5A
1511924842.45,16627,6.88,72370.8,-8.43,-9.31,-9.27,0,*5C
1511924843.67,16628,6.88,72374.8,-8.43,-9.27,-9.27,0,*54
1511924844.89,16629,6.88,72374.0,-8.43,-9.27,-9.27,0,*55
1511924846.14,16630,6.88,72376.0,-8.43,-9.31,-9.41,0,*5A
1511924847.42,16631,6.88,72370.0,-8.43,-9.41,-9.41,0,*5C
1511924848.67,16632,6.88,72370.5,-8.45,-9.53,-9.53,0,*59
1511924849.93,16633,6.88,72370.0,-8.45,-9.45,-9.53,0,*5F
1511924851.19,16634,6.88,72366.5,-8.45,-9.45,-9.53,0,*58
1511924852.44,16635,6.88,72360.8,-8.45,-9.41,-9.45,0,*5A
1511924853.68,16636,6.88,72360.5,-8.45,-9.31,-9.53,0,*59
1511924854.95,16637,6.88,72360.0,-8.43,-9.53,-9.53,0,*5A
1511924856.2,16638,6.88,72358.8,-8.45,-9.53,-9.53,0,*53
1511924857.46,16639,6.88,72356.5,-8.45,-9.53,-9.53,0,*52
1511924858.71,16640,6.88,72354.5,-8.45,-9.45,-9.45,0,*5C
1511924859.97,16641,6.88,72362.8,-8.45,-9.45,-9.53,0,*5A
1511924861.25,16642,6.88,72360.5,-8.43,-9.45,-9.53,0,*5F
1511924862.5,16643,6.81,72358.3,-8.45,-9.45,-9.45,0,*5F
1511924863.76,16644,6.88,72358.5,-8.45,-9.45,-9.45,0,*58
1511924864.98,16645,6.88,72364.0,-8.45,-9.45,-9.31,0,*5A
1511924866.24,16646,6.88,72364.0,-8.45,-9.41,-9.41,0,*5A
1511924867.5,16647,6.88,72368.8,-8.45,-9.41,-9.41,0,*5B
1511924868.76,16648,6.88,72370.5,-8.45,-9.41,-9.41,0,*54
1511924869.98,16649,6.88,72372.5,-8.45,-9.41,-9.31,0,*52
1511924871.2,16650,6.88,72372.5,-8.43,-9.31,-9.31,0,*5B
1511924872.41,16651,6.88,72372.0,-8.43,-9.31,-9.31,0,*5A
1511924873.61,16652,6.88,72368.8,-8.45,-9.31,-9.31,0,*5F
1511924874.83,16653,6.88,72366.0,-8.43,-9.31,-9.31,0,*58
1511924876.03,16654,6.88,72362.8,-8.45,-9.31,-9.31,0,*59
1511924877.28,16655,6.88,72360.0,-8.43,-9.31,-9.41,0,*59
1511924878.52,16656,6.88,72362.5,-8.43,-9.31,-9.41,0,*5A
1511924879.74,16657,6.88,72360.8,-8.43,-9.31,-9.31,0,*5C
1511924880.97,16658,6.88,72364.0,-8.45,-9.41,-9.31,0,*52
1511924882.24,16659,6.88,72360.8,-8.43,-9.41,-9.41,0,*52
1511924883.5,16660,6.88,72362.5,-8.45,-9.45,-9.45,0,*5E
1511924884.77,16661,6.81,72358.5,-8.43,-9.45,-9.45,0,*59
1511924886.04,16662,6.88,72362.0,-8.43,-9.45,-9.41,0,*5E
1511924887.3,16663,6.88,72358.0,-8.45,-9.41,-9.41,0,*5D
1511924888.57,16664,6.88,72360.5,-8.43,-9.41,-9.45,0,*58
1511924889.85,16665,6.88,72362.3,-8.43,-9.45,-9.45,0,*5D
1511924891.09,16666,6.88,72364.3,-8.43,-9.67,-9.57,0,*5D
1511924892.36,16667,6.88,72366.8,-8.43,-9.57,-9.53,0,*5B
1511924893.62,16668,6.88,72370.8,-8.43,-9.53,-9.57,0,*54
1511924894.87,16669,6.88,72368.8,-8.45,-9.53,-9.57,0,*53
1511924896.11,16670,6.88,72366.0,-8.45,-9.53,-9.57,0,*5B
1511924897.37,16671,6.88,72360.8,-8.43,-9.57,-9.57,0,*58
1511924898.64,16672,6.88,72368.0,-8.43,-9.53,-9.57,0,*5F
1511924899.86,16673,6.88,72364.3,-8.45,-9.67,-9.57,0,*5F
1511924901.06,16674,6.88,72358.3,-8.45,-9.67,-9.67,0,*5B
1511924902.31,16675,6.88,72358.3,-8.45,-9.53,-9.57,0,*5E
1511924903.58,16676,6.81,72360.8,-8.43,-9.53,-9.45,0,*58
1511924904.84,16677,6.88,72362.8,-8.43,-9.53,-9.57,0,*5A
1511924906.1,16678,6.88,72370.8,-8.45,-9.45,-9.57,0,*54
1511924907.32,16679,6.88,72368.8,-8.45,-9.67,-9.57,0,*55
1511924908.52,16680,6.88,72366.5,-8.45,-9.67,-9.71,0,*57
1511924909.77,16681,6.88,72364.3,-8.45,-9.57,-9.57,0,*51
1511924911.02,16682,6.88,72366.8,-8.45,-9.53,-9.45,0,*55
1511924912.28,16683,6.88,72370.8,-8.45,-9.41,-9.53,0,*50
1511924913.56,16684,6.88,72370.3,-8.43,-9.41,-9.45,0,*56
1511924914.82,16685,6.88,72368.0,-8.45,-9.45,-9.53,0,*52
1511924916.07,16686,6.88,72368.3,-8.45,-9.45,-9.45,0,*56
1511924917.33,16687,6.88,72370.0,-8.45,-9.53,-9.53,0,*57
1511924918.57,16688,6.88,72362.3,-8.45,-9.57,-9.57,0,*58
1511924919.82,16689,6.88,72362.8,-8.45,-9.45,-9.57,0,*5A
1511924921.07,16690,6.88,72350.5,-8.45,-9.53,-9.45,0,*56
1511924922.33,16691,6.88,72356.5,-8.45,-9.45,-9.45,0,*50
1511924923.6,16692,6.88,72362.8,-8.43,-9.45,-9.53,0,*52
1511924924.85,16693,6.88,72364.8,-8.45,-9.53,-9.45,0,*55
1511924926.11,16694,6.88,72366.5,-8.45,-9.53,-9.53,0,*55